Time,TemperatureF,DewpointF,PressureIn,WindDirection,WindDirectionDegrees,WindSpeedMPH,WindSpeedGustMPH,Humidity,HourlyPrecipIn,Conditions,Clouds,dailyrainin,SoftwareType,DateUTC
2013-08-12 00:00:00,62.2,60.2,29.98,SW,219,0.0,0.0,93,0.00,,BKN070,0.00,VWS V14.01,2013-08-12 05:00:00,
2013-08-12 00:10:00,62.2,59.8,29.98,SW,219,0.0,0.0,92,0.00,,BKN070,0.00,VWS V14.01,2013-08-12 05:10:00,
2013-08-12 00:20:00,61.9,59.5,29.98,SW,219,0.0,0.0,92,0.00,,BKN080,0.00,VWS V14.01,2013-08-12 05:20:00,
2013-08-12 00:25:00,61.8,59.5,29.98,SW,219,0.0,0.0,92,0.00,,BKN080,0.00,VWS V14.01,2013-08-12 05:25:00,
2013-08-12 00:35:00,61.5,59.2,29.98,SW,219,0.0,0.0,92,0.00,,BKN080,0.00,VWS V14.01,2013-08-12 05:35:00,
2013-08-12 00:40:00,61.3,59.0,29.99,SW,219,0.0,0.0,92,0.00,,BKN080,0.00,VWS V14.01,2013-08-12 05:40:00,
2013-08-12 00:45:00,61.1,58.8,29.99,North,5,0.0,1.0,92,0.00,,SCT080,0.00,VWS V14.01,2013-08-12 05:45:00,
2013-08-12 00:50:00,61.1,59.1,29.99,North,5,0.0,0.0,93,0.00,,SCT080,0.00,VWS V14.01,2013-08-12 05:50:00,
2013-08-12 01:00:00,61.0,59.0,29.99,North,5,0.0,0.0,93,0.00,,SCT080,0.00,VWS V14.01,2013-08-12 06:00:00,
2013-08-12 01:05:00,61.1,59.1,29.99,North,5,0.0,0.0,93,0.00,,CLR,0.00,VWS V14.01,2013-08-12 06:05:00,
2013-08-12 01:15:00,61.3,59.3,29.99,North,5,0.0,1.0,93,0.00,,CLR,0.00,VWS V14.01,2013-08-12 06:15:00,
2013-08-12 01:20:00,61.4,59.4,29.99,North,5,0.0,0.0,93,0.00,,BKN080,0.00,VWS V14.01,2013-08-12 06:20:00,
2013-08-12 01:30:00,61.6,59.6,29.99,North,5,0.0,2.1,93,0.00,,BKN080,0.00,VWS V14.01,2013-08-12 06:30:00,
2013-08-12 01:40:00,61.8,59.8,29.99,NNW,337,0.0,2.1,93,0.00,,BKN080,0.00,VWS V14.01,2013-08-12 06:40:00,
2013-08-12 01:45:00,61.8,59.5,29.99,NNW,337,0.0,0.0,92,0.00,,BKN080,0.00,VWS V14.01,2013-08-12 06:45:00,
2013-08-12 01:55:00,61.4,59.1,29.99,NNW,337,0.0,0.0,92,0.00,,BKN080,0.00,VWS V14.01,2013-08-12 06:55:00,
2013-08-12 02:00:00,61.2,58.9,29.99,NNW,337,0.0,0.0,92,0.00,,BKN080,0.00,VWS V14.01,2013-08-12 07:00:00,
2013-08-12 02:05:00,61.0,58.7,29.98,NNW,337,0.0,0.0,92,0.00,,SCT080,0.00,VWS V14.01,2013-08-12 07:05:00,
2013-08-12 02:10:00,60.7,58.4,29.98,NNW,337,0.0,0.0,92,0.00,,SCT080,0.00,VWS V14.01,2013-08-12 07:10:00,
2013-08-12 02:15:00,60.5,58.2,29.98,NNW,337,0.0,0.0,92,0.00,,SCT080,0.00,VWS V14.01,2013-08-12 07:15:00,
2013-08-12 02:20:00,60.3,58.0,29.98,NNW,337,0.0,0.0,92,0.00,,SCT080,0.00,VWS V14.01,2013-08-12 07:20:00,
2013-08-12 02:25:00,60.1,57.8,29.99,NNW,337,0.0,0.0,92,0.00,,SCT080,0.00,VWS V14.01,2013-08-12 07:25:00,
2013-08-12 02:35:00,59.7,57.7,29.99,NNW,337,0.0,0.0,93,0.00,,SCT080,0.00,VWS V14.01,2013-08-12 07:35:00,
2013-08-12 02:40:00,59.5,57.5,29.98,NNW,337,0.0,0.0,93,0.00,,CLR,0.00,VWS V14.01,2013-08-12 07:40:00,
2013-08-12 02:45:00,59.3,57.3,29.98,NNW,337,0.0,0.0,93,0.00,,CLR,0.00,VWS V14.01,2013-08-12 07:45:00,
2013-08-12 02:55:00,58.9,56.9,29.98,NNW,337,0.0,0.0,93,0.00,,CLR,0.00,VWS V14.01,2013-08-12 07:55:00,
2013-08-12 03:00:00,58.7,56.7,29.98,NNW,337,0.0,0.0,93,0.00,,CLR,0.00,VWS V14.01,2013-08-12 08:00:00,
2013-08-12 03:05:00,58.4,56.4,29.98,NNW,337,0.0,1.0,93,0.00,,CLR,0.00,VWS V14.01,2013-08-12 08:05:00,
2013-08-12 03:15:00,58.3,56.6,29.98,NNW,337,0.0,0.0,94,0.00,,CLR,0.00,VWS V14.01,2013-08-12 08:15:00,
2013-08-12 03:20:00,58.2,56.5,29.98,NNW,337,0.0,0.0,94,0.00,,CLR,0.00,VWS V14.01,2013-08-12 08:20:00,
2013-08-12 03:25:00,58.1,56.4,29.98,NNW,337,0.0,0.0,94,0.00,,CLR,0.00,VWS V14.01,2013-08-12 08:25:00,
2013-08-12 03:30:00,58.0,56.3,29.99,NNW,337,0.0,0.0,94,0.00,,CLR,0.00,VWS V14.01,2013-08-12 08:30:00,
2013-08-12 03:40:00,57.7,56.0,29.98,NNW,337,0.0,0.0,94,0.00,,CLR,0.00,VWS V14.01,2013-08-12 08:40:00,
2013-08-12 03:45:00,57.6,55.9,29.99,NNW,337,0.0,0.0,94,0.00,,CLR,0.00,VWS V14.01,2013-08-12 08:45:00,
2013-08-12 03:50:00,57.4,55.7,29.99,NNW,337,0.0,0.0,94,0.00,,CLR,0.00,VWS V14.01,2013-08-12 08:50:00,
2013-08-12 03:55:00,57.4,55.7,29.99,NNW,337,0.0,0.0,94,0.00,,CLR,0.00,VWS V14.01,2013-08-12 08:55:00,
2013-08-12 04:05:00,57.2,55.5,29.98,NNW,337,0.0,0.0,94,0.00,,SCT075,0.00,VWS V14.01,2013-08-12 09:05:00,
2013-08-12 04:10:00,57.1,55.4,29.99,NNW,337,0.0,0.0,94,0.00,,SCT075,0.00,VWS V14.01,2013-08-12 09:10:00,
2013-08-12 04:20:00,56.7,55.0,29.98,NNW,337,0.0,0.0,94,0.00,,SCT075,0.00,VWS V14.01,2013-08-12 09:20:00,
2013-08-12 04:25:00,56.5,54.8,29.98,NNW,337,0.0,0.0,94,0.00,,SCT075,0.00,VWS V14.01,2013-08-12 09:25:00,
2013-08-12 04:35:00,56.1,54.4,29.99,NNW,337,0.0,0.0,94,0.00,,SCT075,0.00,VWS V14.01,2013-08-12 09:35:00,
2013-08-12 04:40:00,55.9,54.2,29.99,NNW,337,0.0,0.0,94,0.00,,CLR,0.00,VWS V14.01,2013-08-12 09:40:00,
2013-08-12 04:45:00,55.8,54.1,29.99,NNW,337,0.0,1.0,94,0.00,,CLR,0.00,VWS V14.01,2013-08-12 09:45:00,
2013-08-12 04:50:00,55.6,53.9,29.99,NNW,337,0.0,0.0,94,0.00,,CLR,0.00,VWS V14.01,2013-08-12 09:50:00,
2013-08-12 04:55:00,55.5,53.8,29.99,NNW,337,0.0,0.0,94,0.00,,CLR,0.00,VWS V14.01,2013-08-12 09:55:00,
2013-08-12 05:00:00,55.3,53.6,29.99,NNW,337,0.0,0.0,94,0.00,,CLR,0.00,VWS V14.01,2013-08-12 10:00:00,
2013-08-12 05:05:00,55.1,53.4,29.99,NNW,337,0.0,0.0,94,0.00,,CLR,0.00,VWS V14.01,2013-08-12 10:05:00,
2013-08-12 05:15:00,54.8,53.1,29.99,NNW,337,0.0,0.0,94,0.00,,CLR,0.00,VWS V14.01,2013-08-12 10:15:00,
2013-08-12 05:20:00,54.7,53.0,29.99,NNW,337,0.0,0.0,94,0.00,,CLR,0.00,VWS V14.01,2013-08-12 10:20:00,
2013-08-12 05:25:00,54.5,52.8,29.99,NNW,337,0.0,0.0,94,0.00,,CLR,0.00,VWS V14.01,2013-08-12 10:25:00,
2013-08-12 05:35:00,54.4,52.7,29.99,NNW,337,0.0,0.0,94,0.01,,CLR,0.01,VWS V14.01,2013-08-12 10:35:00,
2013-08-12 05:40:00,54.3,52.6,29.99,NNW,337,0.0,0.0,94,0.01,,CLR,0.01,VWS V14.01,2013-08-12 10:40:00,
2013-08-12 05:45:00,54.2,52.5,30.00,NNW,337,0.0,0.0,94,0.01,,CLR,0.01,VWS V14.01,2013-08-12 10:45:00,
2013-08-12 05:50:00,54.2,52.5,30.00,NNW,337,0.0,0.0,94,0.01,,CLR,0.01,VWS V14.01,2013-08-12 10:50:00,
2013-08-12 05:55:00,54.1,52.4,30.00,NNW,337,0.0,0.0,94,0.01,,CLR,0.01,VWS V14.01,2013-08-12 10:55:00,
2013-08-12 06:00:00,54.0,52.3,30.00,NNW,337,0.0,0.0,94,0.01,,CLR,0.01,VWS V14.01,2013-08-12 11:00:00,
2013-08-12 06:05:00,53.9,52.2,30.00,NNW,337,0.0,0.0,94,0.01,,CLR,0.01,VWS V14.01,2013-08-12 11:05:00,
2013-08-12 06:10:00,53.7,52.0,30.00,NNW,337,0.0,0.0,94,0.01,,CLR,0.01,VWS V14.01,2013-08-12 11:10:00,
2013-08-12 06:20:00,53.2,51.5,30.00,NNW,337,0.0,1.0,94,0.01,,CLR,0.01,VWS V14.01,2013-08-12 11:20:00,
2013-08-12 06:25:00,53.1,51.4,30.00,NNW,337,0.0,0.0,94,0.01,,CLR,0.01,VWS V14.01,2013-08-12 11:25:00,
2013-08-12 06:30:00,53.0,51.6,30.00,NNW,337,0.0,0.0,95,0.01,,CLR,0.01,VWS V14.01,2013-08-12 11:30:00,
2013-08-12 06:40:00,53.2,51.8,30.00,NNW,337,0.0,0.0,95,0.00,,CLR,0.01,VWS V14.01,2013-08-12 11:40:00,
2013-08-12 06:45:00,53.5,52.1,30.00,NNW,337,0.0,0.0,95,0.00,,CLR,0.01,VWS V14.01,2013-08-12 11:45:00,
2013-08-12 06:55:00,53.9,52.5,30.00,NNW,337,0.0,0.0,95,0.00,,CLR,0.01,VWS V14.01,2013-08-12 11:55:00,
2013-08-12 07:00:00,54.2,52.8,30.00,NNW,337,0.0,0.0,95,0.00,,CLR,0.01,VWS V14.01,2013-08-12 12:00:00,
2013-08-12 07:10:00,55.1,53.7,30.00,NNW,336,0.0,1.0,95,0.00,,CLR,0.01,VWS V14.01,2013-08-12 12:10:00,
2013-08-12 07:15:00,55.4,53.7,30.00,NNW,336,0.0,1.0,94,0.00,,CLR,0.01,VWS V14.01,2013-08-12 12:15:00,
2013-08-12 07:25:00,56.1,54.4,30.00,NNW,338,1.0,1.0,94,0.00,,CLR,0.01,VWS V14.01,2013-08-12 12:25:00,
2013-08-12 07:35:00,57.1,55.4,30.00,North,355,0.0,3.1,94,0.00,,CLR,0.01,VWS V14.01,2013-08-12 12:35:00,
2013-08-12 07:40:00,57.5,55.8,30.00,North,355,1.0,2.1,94,0.00,,CLR,0.01,VWS V14.01,2013-08-12 12:40:00,
2013-08-12 07:45:00,58.1,56.4,30.00,North,355,1.0,4.2,94,0.00,,CLR,0.01,VWS V14.01,2013-08-12 12:45:00,
2013-08-12 07:50:00,58.7,57.0,30.00,NNE,26,1.0,3.1,94,0.00,,CLR,0.01,VWS V14.01,2013-08-12 12:50:00,
2013-08-12 08:00:00,59.9,57.9,30.00,NNW,337,1.0,4.2,93,0.00,,CLR,0.01,VWS V14.01,2013-08-12 13:00:00,
2013-08-12 08:10:00,60.8,58.5,30.00,North,355,1.0,3.1,92,0.00,,CLR,0.01,VWS V14.01,2013-08-12 13:10:00,
2013-08-12 08:15:00,61.3,59.0,30.00,North,355,0.0,2.1,92,0.00,,CLR,0.01,VWS V14.01,2013-08-12 13:15:00,
2013-08-12 08:20:00,61.9,59.2,30.00,NNW,327,0.0,2.1,91,0.00,,CLR,0.01,VWS V14.01,2013-08-12 13:20:00,
2013-08-12 08:25:00,62.3,59.6,30.00,NW,325,0.0,2.1,91,0.00,,CLR,0.01,VWS V14.01,2013-08-12 13:25:00,
2013-08-12 08:35:00,63.4,60.1,30.01,NW,325,0.0,1.0,89,0.00,,CLR,0.01,VWS V14.01,2013-08-12 13:35:00,
2013-08-12 08:40:00,63.9,60.0,30.01,NW,325,0.0,2.1,87,0.00,,CLR,0.01,VWS V14.01,2013-08-12 13:40:00,
2013-08-12 08:45:00,64.4,60.5,30.01,NNE,27,0.0,2.1,87,0.00,,CLR,0.01,VWS V14.01,2013-08-12 13:45:00,
2013-08-12 08:55:00,65.2,60.9,30.01,WSW,258,0.0,2.1,86,0.00,,CLR,0.01,VWS V14.01,2013-08-12 13:55:00,
2013-08-12 09:00:00,65.5,60.9,30.02,WNW,301,0.0,3.1,85,0.00,,CLR,0.01,VWS V14.01,2013-08-12 14:00:00,
2013-08-12 09:05:00,65.8,60.5,30.01,WNW,300,0.0,2.1,83,0.00,,CLR,0.01,VWS V14.01,2013-08-12 14:05:00,
2013-08-12 09:10:00,66.3,60.7,30.01,NW,312,1.0,4.2,82,0.00,,CLR,0.01,VWS V14.01,2013-08-12 14:10:00,
2013-08-12 09:15:00,66.8,61.8,30.01,WNW,291,0.0,2.1,84,0.00,,CLR,0.01,VWS V14.01,2013-08-12 14:15:00,
2013-08-12 09:20:00,67.2,61.5,30.01,NW,318,0.0,3.1,82,0.00,,CLR,0.01,VWS V14.01,2013-08-12 14:20:00,
2013-08-12 09:25:00,67.7,62.0,30.01,NW,313,0.0,4.2,82,0.00,,CLR,0.01,VWS V14.01,2013-08-12 14:25:00,
2013-08-12 09:35:00,69.0,61.9,30.01,NNW,344,0.0,4.2,78,0.00,,CLR,0.01,VWS V14.01,2013-08-12 14:35:00,
2013-08-12 09:45:00,70.3,62.8,30.01,NW,308,2.0,2.1,77,0.00,,CLR,0.01,VWS V14.01,2013-08-12 14:45:00,
2013-08-12 09:50:00,70.9,62.2,30.01,NNW,348,3.0,6.3,74,0.00,,CLR,0.01,VWS V14.01,2013-08-12 14:50:00,
2013-08-12 10:00:00,71.4,61.9,30.02,NW,325,1.0,5.2,72,0.00,,CLR,0.01,VWS V14.01,2013-08-12 15:00:00,
2013-08-12 10:05:00,71.6,61.7,30.02,NNW,337,2.0,2.1,71,0.00,,CLR,0.01,VWS V14.01,2013-08-12 15:05:00,
2013-08-12 10:10:00,71.9,62.0,30.02,West,264,2.0,5.2,71,0.00,,CLR,0.01,VWS V14.01,2013-08-12 15:10:00,
2013-08-12 10:20:00,72.1,60.5,30.02,NW,315,0.0,9.4,67,0.00,,CLR,0.01,VWS V14.01,2013-08-12 15:20:00,
2013-08-12 10:30:00,72.3,61.6,30.02,North,360,2.0,7.3,69,0.00,,CLR,0.01,VWS V14.01,2013-08-12 15:30:00,
2013-08-12 10:40:00,72.6,61.9,30.02,North,360,4.0,8.4,69,0.00,,CLR,0.01,VWS V14.01,2013-08-12 15:40:00,
2013-08-12 10:50:00,72.5,60.9,30.02,North,351,0.0,5.2,67,0.00,,CLR,0.01,VWS V14.01,2013-08-12 15:50:00,
2013-08-12 10:55:00,72.9,60.5,30.02,NNE,30,3.0,9.4,65,0.00,,CLR,0.01,VWS V14.01,2013-08-12 15:55:00,
2013-08-12 11:00:00,72.8,60.8,30.02,NNE,15,8.0,8.4,66,0.00,,CLR,0.01,VWS V14.01,2013-08-12 16:00:00,
2013-08-12 11:10:00,73.0,60.5,30.02,North,10,4.0,6.3,65,0.00,,CLR,0.01,VWS V14.01,2013-08-12 16:10:00,
2013-08-12 11:25:00,73.1,60.7,30.02,NNE,17,3.0,9.4,65,0.00,,CLR,0.01,VWS V14.01,2013-08-12 16:25:00,
2013-08-12 11:30:00,73.2,59.9,30.02,WNW,301,4.0,8.4,63,0.00,,CLR,0.01,VWS V14.01,2013-08-12 16:30:00,
2013-08-12 11:35:00,73.3,60.0,30.02,NE,44,4.0,8.4,63,0.00,,CLR,0.01,VWS V14.01,2013-08-12 16:35:00,
2013-08-12 11:40:00,73.5,61.0,30.02,NW,319,0.0,5.2,65,0.00,,CLR,0.01,VWS V14.01,2013-08-12 16:40:00,
2013-08-12 11:45:00,73.8,60.4,30.02,NNW,342,2.0,7.3,63,0.00,,CLR,0.01,VWS V14.01,2013-08-12 16:45:00,
2013-08-12 11:55:00,73.8,61.7,30.02,NW,320,1.0,10.5,66,0.00,,CLR,0.01,VWS V14.01,2013-08-12 16:55:00,
2013-08-12 12:00:00,73.8,61.3,30.02,NNE,24,3.0,8.4,65,0.00,,CLR,0.01,VWS V14.01,2013-08-12 17:00:00,
2013-08-12 12:10:00,74.1,60.3,30.02,North,5,1.0,8.4,62,0.00,,CLR,0.01,VWS V14.01,2013-08-12 17:10:00,
2013-08-12 12:15:00,74.4,61.4,30.02,North,355,3.0,6.3,64,0.00,,CLR,0.01,VWS V14.01,2013-08-12 17:15:00,
2013-08-12 12:20:00,74.9,61.0,30.02,NW,311,1.0,7.3,62,0.00,,CLR,0.01,VWS V14.01,2013-08-12 17:20:00,
2013-08-12 12:25:00,75.2,59.9,30.02,NNE,13,2.0,8.4,59,0.00,,CLR,0.01,VWS V14.01,2013-08-12 17:25:00,
2013-08-12 12:35:00,75.1,60.8,30.02,NNW,327,1.0,9.4,61,0.00,,CLR,0.01,VWS V14.01,2013-08-12 17:35:00,
2013-08-12 12:40:00,75.3,59.5,30.02,NNW,342,3.0,9.4,58,0.00,,CLR,0.01,VWS V14.01,2013-08-12 17:40:00,
2013-08-12 12:45:00,75.3,59.0,30.02,North,351,9.0,10.5,57,0.00,,CLR,0.01,VWS V14.01,2013-08-12 17:45:00,
2013-08-12 12:50:00,75.1,59.3,30.02,North,5,4.0,9.4,58,0.00,,CLR,0.01,VWS V14.01,2013-08-12 17:50:00,
2013-08-12 12:55:00,75.2,59.4,30.02,WSW,254,1.0,5.2,58,0.00,,CLR,0.01,VWS V14.01,2013-08-12 17:55:00,
2013-08-12 13:00:00,75.5,60.7,30.02,NW,305,5.0,6.3,60,0.00,,CLR,0.01,VWS V14.01,2013-08-12 18:00:00,
2013-08-12 13:05:00,75.6,58.8,30.02,WNW,291,0.0,8.4,56,0.00,,CLR,0.01,VWS V14.01,2013-08-12 18:05:00,
2013-08-12 13:10:00,75.6,57.8,30.02,NNE,16,1.0,8.4,54,0.00,,CLR,0.01,VWS V14.01,2013-08-12 18:10:00,
2013-08-12 13:20:00,75.6,58.8,30.02,NE,39,6.0,9.4,56,0.00,,CLR,0.01,VWS V14.01,2013-08-12 18:20:00,
2013-08-12 13:30:00,75.6,57.3,30.02,ENE,59,4.0,8.4,53,0.00,,CLR,0.01,VWS V14.01,2013-08-12 18:30:00,
2013-08-12 13:35:00,75.7,57.9,30.02,NNW,346,4.0,8.4,54,0.00,,CLR,0.01,VWS V14.01,2013-08-12 18:35:00,
2013-08-12 13:45:00,75.8,59.0,30.02,NNW,345,5.0,6.3,56,0.00,,CLR,0.01,VWS V14.01,2013-08-12 18:45:00,
2013-08-12 13:50:00,75.9,59.1,30.01,NE,42,6.0,10.5,56,0.00,,CLR,0.01,VWS V14.01,2013-08-12 18:50:00,
2013-08-12 13:55:00,76.1,58.3,30.01,NE,36,2.0,8.4,54,0.00,,CLR,0.01,VWS V14.01,2013-08-12 18:55:00,
2013-08-12 14:00:00,76.0,57.7,30.01,North,360,1.0,9.4,53,0.00,,CLR,0.01,VWS V14.01,2013-08-12 19:00:00,
2013-08-12 14:10:00,76.2,57.3,30.01,North,11,3.0,6.3,52,0.00,,CLR,0.01,VWS V14.01,2013-08-12 19:10:00,
2013-08-12 14:15:00,76.4,57.5,30.01,NNE,21,5.0,6.3,52,0.00,,CLR,0.01,VWS V14.01,2013-08-12 19:15:00,
2013-08-12 14:20:00,76.5,59.7,30.01,North,351,3.0,5.2,56,0.00,,CLR,0.01,VWS V14.01,2013-08-12 19:20:00,
2013-08-12 14:25:00,76.6,59.2,30.01,NNE,19,5.0,9.4,55,0.00,,CLR,0.01,VWS V14.01,2013-08-12 19:25:00,
2013-08-12 14:35:00,76.6,59.8,30.01,NNW,346,0.0,6.3,56,0.00,,CLR,0.01,VWS V14.01,2013-08-12 19:35:00,
2013-08-12 14:40:00,76.8,58.4,30.01,West,276,1.0,5.2,53,0.00,,CLR,0.01,VWS V14.01,2013-08-12 19:40:00,
2013-08-12 14:45:00,77.2,59.8,30.00,North,351,2.0,4.2,55,0.00,,CLR,0.01,VWS V14.01,2013-08-12 19:45:00,
2013-08-12 14:50:00,77.3,57.8,30.00,NNE,17,3.0,7.3,51,0.00,,CLR,0.01,VWS V14.01,2013-08-12 19:50:00,
2013-08-12 14:55:00,77.3,60.4,30.00,NNE,19,4.0,6.3,56,0.00,,CLR,0.01,VWS V14.01,2013-08-12 19:55:00,
2013-08-12 15:00:00,77.6,59.1,30.00,WNW,291,0.0,5.2,53,0.00,,CLR,0.01,VWS V14.01,2013-08-12 20:00:00,
2013-08-12 15:05:00,77.8,59.3,30.00,East,81,7.0,8.4,53,0.00,,CLR,0.01,VWS V14.01,2013-08-12 20:05:00,
2013-08-12 15:15:00,77.9,61.0,30.00,NNW,327,2.0,4.2,56,0.00,,CLR,0.01,VWS V14.01,2013-08-12 20:15:00,
2013-08-12 15:20:00,77.9,59.4,30.00,NE,43,1.0,5.2,53,0.00,,CLR,0.01,VWS V14.01,2013-08-12 20:20:00,
2013-08-12 15:25:00,78.0,61.0,30.00,North,360,1.0,4.2,56,0.00,,CLR,0.01,VWS V14.01,2013-08-12 20:25:00,
2013-08-12 15:30:00,78.2,60.2,30.00,North,10,1.0,4.2,54,0.00,,CLR,0.01,VWS V14.01,2013-08-12 20:30:00,
2013-08-12 15:35:00,78.1,58.5,30.00,North,9,0.0,4.2,51,0.00,,CLR,0.01,VWS V14.01,2013-08-12 20:35:00,
2013-08-12 15:40:00,78.4,58.8,30.00,SSW,193,0.0,3.1,51,0.00,,CLR,0.01,VWS V14.01,2013-08-12 20:40:00,
2013-08-12 15:45:00,78.7,58.5,30.00,West,268,2.0,4.2,50,0.00,,CLR,0.01,VWS V14.01,2013-08-12 20:45:00,
2013-08-12 15:50:00,78.8,59.2,30.00,North,9,0.0,4.2,51,0.00,,CLR,0.01,VWS V14.01,2013-08-12 20:50:00,
2013-08-12 15:55:00,78.9,61.4,30.00,NNW,332,1.0,5.2,55,0.00,,CLR,0.01,VWS V14.01,2013-08-12 20:55:00,
2013-08-12 16:00:00,78.9,59.2,30.00,North,349,3.0,6.3,51,0.00,,CLR,0.01,VWS V14.01,2013-08-12 21:00:00,
2013-08-12 16:10:00,77.5,58.5,30.00,North,355,3.0,8.4,52,0.00,,CLR,0.01,VWS V14.01,2013-08-12 21:10:00,
2013-08-12 16:15:00,77.6,58.6,29.99,WNW,282,1.0,4.2,52,0.00,,CLR,0.01,VWS V14.01,2013-08-12 21:15:00,
2013-08-12 16:20:00,77.9,59.4,30.00,North,355,0.0,9.4,53,0.00,,CLR,0.01,VWS V14.01,2013-08-12 21:20:00,
2013-08-12 16:25:00,78.2,59.7,29.99,North,355,0.0,4.2,53,0.00,,CLR,0.01,VWS V14.01,2013-08-12 21:25:00,
2013-08-12 16:30:00,78.5,60.5,29.99,NNW,335,0.0,4.2,54,0.00,,CLR,0.01,VWS V14.01,2013-08-12 21:30:00,
2013-08-12 16:35:00,78.9,59.2,29.99,WNW,288,2.0,3.1,51,0.00,,CLR,0.01,VWS V14.01,2013-08-12 21:35:00,
2013-08-12 16:40:00,79.1,59.4,29.99,WNW,292,2.0,5.2,51,0.00,,CLR,0.01,VWS V14.01,2013-08-12 21:40:00,
2013-08-12 16:50:00,78.9,59.2,29.99,ENE,78,0.0,4.2,51,0.00,,CLR,0.01,VWS V14.01,2013-08-12 21:50:00,
2013-08-12 16:55:00,78.8,60.2,29.99,NW,322,1.0,4.2,53,0.00,,CLR,0.01,VWS V14.01,2013-08-12 21:55:00,
2013-08-12 17:00:00,78.7,60.7,29.99,NNW,332,0.0,4.2,54,0.00,,CLR,0.01,VWS V14.01,2013-08-12 22:00:00,
2013-08-12 17:05:00,78.9,60.3,29.99,WSW,246,0.0,3.1,53,0.00,,CLR,0.01,VWS V14.01,2013-08-12 22:05:00,
2013-08-12 17:15:00,79.4,60.8,29.99,West,276,1.0,1.0,53,0.00,,CLR,0.01,VWS V14.01,2013-08-12 22:15:00,
2013-08-12 17:20:00,79.8,61.2,29.99,West,276,0.0,1.0,53,0.00,,CLR,0.01,VWS V14.01,2013-08-12 22:20:00,
2013-08-12 17:30:00,79.8,59.5,29.99,NNE,24,0.0,5.2,50,0.00,,CLR,0.01,VWS V14.01,2013-08-12 22:30:00,
2013-08-12 17:35:00,79.8,61.2,29.99,NE,36,0.0,2.1,53,0.00,,CLR,0.01,VWS V14.01,2013-08-12 22:35:00,
2013-08-12 17:40:00,79.4,57.4,29.99,NNW,329,1.0,4.2,47,0.00,,CLR,0.01,VWS V14.01,2013-08-12 22:40:00,
2013-08-12 17:45:00,79.1,58.9,29.99,NW,323,0.0,2.1,50,0.00,,CLR,0.01,VWS V14.01,2013-08-12 22:45:00,
2013-08-12 17:50:00,79.1,61.6,29.98,NW,323,0.0,1.0,55,0.00,,CLR,0.01,VWS V14.01,2013-08-12 22:50:00,
2013-08-12 17:55:00,79.1,61.0,29.98,South,169,0.0,2.1,54,0.00,,CLR,0.01,VWS V14.01,2013-08-12 22:55:00,
2013-08-12 18:00:00,79.1,59.4,29.98,NW,317,0.0,2.1,51,0.00,,CLR,0.01,VWS V14.01,2013-08-12 23:00:00,
2013-08-12 18:05:00,79.1,58.9,29.98,NNW,332,0.0,2.1,50,0.00,,CLR,0.01,VWS V14.01,2013-08-12 23:05:00,
2013-08-12 18:10:00,79.2,61.1,29.98,NNW,327,0.0,1.0,54,0.00,,CLR,0.01,VWS V14.01,2013-08-12 23:10:00,
2013-08-12 18:15:00,79.1,59.4,29.99,WNW,284,0.0,4.2,51,0.00,,CLR,0.01,VWS V14.01,2013-08-12 23:15:00,
2013-08-12 18:20:00,79.2,61.1,29.98,WNW,284,0.0,1.0,54,0.00,,CLR,0.01,VWS V14.01,2013-08-12 23:20:00,
2013-08-12 18:25:00,79.3,59.6,29.99,WNW,300,0.0,1.0,51,0.00,,CLR,0.01,VWS V14.01,2013-08-12 23:25:00,
2013-08-12 18:30:00,79.3,60.7,29.98,NNE,18,0.0,1.0,53,0.00,,CLR,0.01,VWS V14.01,2013-08-12 23:30:00,
2013-08-12 18:40:00,79.3,61.2,29.98,NNE,18,0.0,0.0,54,0.00,,CLR,0.01,VWS V14.01,2013-08-12 23:40:00,
2013-08-12 18:45:00,79.3,61.8,29.98,WNW,300,0.0,2.1,55,0.00,,CLR,0.01,VWS V14.01,2013-08-12 23:45:00,
2013-08-12 18:55:00,78.9,61.4,29.98,WNW,296,0.0,0.0,55,0.00,,CLR,0.01,VWS V14.01,2013-08-12 23:55:00,
2013-08-12 19:00:00,78.6,61.6,29.98,WNW,296,1.0,1.0,56,0.00,,CLR,0.01,VWS V14.01,2013-08-13 00:00:00,
2013-08-12 19:05:00,78.4,61.9,29.98,WNW,296,0.0,1.0,57,0.00,,CLR,0.01,VWS V14.01,2013-08-13 00:05:00,
2013-08-12 19:15:00,77.9,63.8,29.98,WNW,296,0.0,0.0,62,0.00,,CLR,0.01,VWS V14.01,2013-08-13 00:15:00,
2013-08-12 19:25:00,77.2,62.2,29.98,WNW,296,0.0,0.0,60,0.00,,CLR,0.01,VWS V14.01,2013-08-13 00:25:00,
2013-08-12 19:30:00,77.0,63.0,29.97,WNW,296,0.0,0.0,62,0.00,,CLR,0.01,VWS V14.01,2013-08-13 00:30:00,
2013-08-12 19:35:00,77.0,65.2,29.98,WNW,296,0.0,0.0,67,0.00,,CLR,0.01,VWS V14.01,2013-08-13 00:35:00,
2013-08-12 19:40:00,76.8,65.0,29.98,WNW,296,0.0,0.0,67,0.00,,CLR,0.01,VWS V14.01,2013-08-13 00:40:00,
2013-08-12 19:50:00,75.8,64.5,29.98,WNW,296,0.0,0.0,68,0.00,,CLR,0.01,VWS V14.01,2013-08-13 00:50:00,
2013-08-12 19:55:00,74.7,63.9,29.98,WNW,296,0.0,0.0,69,0.00,,CLR,0.01,VWS V14.01,2013-08-13 00:55:00,
2013-08-12 20:00:00,73.5,63.9,29.98,WNW,296,0.0,0.0,72,0.00,,CLR,0.01,VWS V14.01,2013-08-13 01:00:00,
2013-08-12 20:05:00,72.8,63.7,29.98,WNW,296,0.0,0.0,73,0.00,,CLR,0.01,VWS V14.01,2013-08-13 01:05:00,
2013-08-12 20:10:00,71.9,63.2,29.98,WNW,296,0.0,0.0,74,0.00,,CLR,0.01,VWS V14.01,2013-08-13 01:10:00,
2013-08-12 20:15:00,70.9,62.6,29.98,WNW,296,0.0,0.0,75,0.00,,CLR,0.01,VWS V14.01,2013-08-13 01:15:00,
2013-08-12 20:25:00,69.5,61.6,29.98,WNW,296,0.0,1.0,76,0.00,,CLR,0.01,VWS V14.01,2013-08-13 01:25:00,
2013-08-12 20:30:00,68.8,61.3,29.98,WNW,296,0.0,0.0,77,0.00,,CLR,0.01,VWS V14.01,2013-08-13 01:30:00,
2013-08-12 20:35:00,68.1,61.3,29.98,WNW,296,0.0,0.0,79,0.00,,CLR,0.01,VWS V14.01,2013-08-13 01:35:00,
2013-08-12 20:45:00,66.5,61.2,29.98,WNW,296,0.0,1.0,83,0.00,,CLR,0.01,VWS V14.01,2013-08-13 01:45:00,
2013-08-12 20:50:00,65.7,60.4,29.98,WNW,296,0.0,1.0,83,0.00,,CLR,0.01,VWS V14.01,2013-08-13 01:50:00,
2013-08-12 21:00:00,65.2,59.9,29.99,WNW,296,0.0,1.0,83,0.00,,CLR,0.01,VWS V14.01,2013-08-13 02:00:00,
2013-08-12 21:05:00,65.0,59.7,29.99,WNW,296,0.0,1.0,83,0.00,,CLR,0.01,VWS V14.01,2013-08-13 02:05:00,
2013-08-12 21:15:00,64.8,59.5,30.00,WNW,296,0.0,0.0,83,0.00,,CLR,0.01,VWS V14.01,2013-08-13 02:15:00,
2013-08-12 21:20:00,64.7,59.8,30.00,WNW,296,0.0,0.0,84,0.00,,CLR,0.01,VWS V14.01,2013-08-13 02:20:00,
2013-08-12 21:25:00,64.4,59.5,30.00,WNW,296,0.0,0.0,84,0.00,,CLR,0.01,VWS V14.01,2013-08-13 02:25:00,
2013-08-12 21:35:00,63.4,59.2,30.00,WNW,296,0.0,0.0,86,0.00,,CLR,0.01,VWS V14.01,2013-08-13 02:35:00,
2013-08-12 21:40:00,63.0,59.1,30.00,WNW,296,0.0,0.0,87,0.00,,CLR,0.01,VWS V14.01,2013-08-13 02:40:00,
2013-08-12 21:50:00,62.5,59.2,30.00,WNW,296,0.0,0.0,89,0.00,,CLR,0.01,VWS V14.01,2013-08-13 02:50:00,
2013-08-12 21:55:00,62.3,59.0,30.00,WNW,296,0.0,0.0,89,0.00,,CLR,0.01,VWS V14.01,2013-08-13 02:55:00,
2013-08-12 22:00:00,62.1,58.8,30.01,WNW,296,0.0,0.0,89,0.00,,CLR,0.01,VWS V14.01,2013-08-13 03:00:00,
2013-08-12 22:05:00,62.1,59.1,30.01,WNW,296,0.0,0.0,90,0.00,,CLR,0.01,VWS V14.01,2013-08-13 03:05:00,
2013-08-12 22:15:00,62.8,59.5,30.01,WNW,296,0.0,0.0,89,0.00,,CLR,0.01,VWS V14.01,2013-08-13 03:15:00,
2013-08-12 22:25:00,62.9,59.3,30.01,WNW,296,0.0,0.0,88,0.00,,CLR,0.01,VWS V14.01,2013-08-13 03:25:00,
2013-08-12 22:30:00,62.7,58.8,30.01,WNW,296,0.0,1.0,87,0.00,,CLR,0.01,VWS V14.01,2013-08-13 03:30:00,
2013-08-12 22:35:00,62.3,58.7,30.01,WNW,296,0.0,1.0,88,0.00,,CLR,0.01,VWS V14.01,2013-08-13 03:35:00,
2013-08-12 22:40:00,61.8,58.2,30.02,WNW,296,0.0,1.0,88,0.00,,CLR,0.01,VWS V14.01,2013-08-13 03:40:00,
2013-08-12 22:45:00,61.5,58.2,30.02,WNW,296,0.0,0.0,89,0.00,,SCT060,0.01,VWS V14.01,2013-08-13 03:45:00,
2013-08-12 22:55:00,61.1,58.2,30.02,WNW,296,0.0,0.0,90,0.00,,SCT060,0.01,VWS V14.01,2013-08-13 03:55:00,
2013-08-12 23:00:00,60.9,58.0,30.02,WNW,296,0.0,0.0,90,0.00,,SCT060,0.01,VWS V14.01,2013-08-13 04:00:00,
2013-08-12 23:05:00,60.6,57.7,30.02,WNW,296,0.0,0.0,90,0.00,,SCT060,0.01,VWS V14.01,2013-08-13 04:05:00,
2013-08-12 23:10:00,60.4,57.8,30.02,WNW,296,0.0,0.0,91,0.00,,SCT060,0.01,VWS V14.01,2013-08-13 04:10:00,
2013-08-12 23:15:00,60.2,57.6,30.02,WNW,296,0.0,0.0,91,0.00,,SCT060,0.01,VWS V14.01,2013-08-13 04:15:00,
2013-08-12 23:20:00,60.0,57.4,30.02,WNW,296,0.0,0.0,91,0.00,,SCT060,0.01,VWS V14.01,2013-08-13 04:20:00,
2013-08-12 23:25:00,59.8,57.2,30.02,WNW,296,0.0,0.0,91,0.00,,SCT060,0.01,VWS V14.01,2013-08-13 04:25:00,
2013-08-12 23:35:00,59.4,57.1,30.02,WNW,296,0.0,0.0,92,0.00,,SCT060,0.01,VWS V14.01,2013-08-13 04:35:00,
2013-08-12 23:40:00,59.3,57.0,30.02,WNW,296,0.0,0.0,92,0.00,,SCT060,0.01,VWS V14.01,2013-08-13 04:40:00,
2013-08-12 23:45:00,59.3,57.0,30.02,WNW,296,0.0,0.0,92,0.00,,SCT060,0.01,VWS V14.01,2013-08-13 04:45:00,
2013-08-12 23:55:00,59.0,56.7,30.03,WNW,296,0.0,0.0,92,0.00,,SCT060,0.01,VWS V14.01,2013-08-13 04:55:00,